contact:dominique.lefevre@mio.osupytheas.fr, maurice.libes@osupytheas.fr, didier.mallarino@osupytheas.fr
Project:EMSO http://www.emso-fr.org/EMSO-France
Depth: 2436.0 m
Title:EMSO Ligure Ouest : Data MII capteur MICROCAT
DateTime_Computer,Latitude,Longitude,Temperature,Conductivity,Pressure,DateTime_Instrument
DateTime_Computer,Latitude,Longitude,degC,S m-1,dbar,DateTime_Instrument
2022-03-06T00:00:02Z,42.805,6.029,13.3000,4.60033,2470.264,2022-3-06T02:01:37Z
2022-03-06T00:03:05Z,42.805,6.029,13.2994,4.60030,2470.24,2022-3-06T02:04:40Z
2022-03-06T00:06:08Z,42.805,6.029,13.2999,4.60031,2470.25,2022-3-06T02:07:44Z
2022-03-06T00:09:12Z,42.805,6.029,13.3002,4.60031,2470.227,2022-3-06T02:10:47Z
2022-03-06T00:12:15Z,42.805,6.029,13.3004,4.60031,2470.24,2022-3-06T02:13:50Z
2022-03-06T00:15:18Z,42.805,6.029,13.3001,4.60031,2470.264,2022-3-06T02:16:53Z
2022-03-06T00:18:21Z,42.805,6.029,13.2996,4.60029,2470.273,2022-3-06T02:19:56Z
2022-03-06T00:21:24Z,42.805,6.029,13.3000,4.60030,2470.227,2022-3-06T02:22:59Z
2022-03-06T00:24:27Z,42.805,6.029,13.3001,4.60029,2470.25,2022-3-06T02:26:02Z
2022-03-06T00:27:30Z,42.805,6.029,13.2998,4.60031,2470.227,2022-3-06T02:29:05Z
2022-03-06T00:30:33Z,42.805,6.029,13.3006,4.60029,2470.203,2022-3-06T02:32:08Z
2022-03-06T00:33:36Z,42.805,6.029,13.2998,4.60029,2470.227,2022-3-06T02:35:12Z
2022-03-06T00:36:40Z,42.805,6.029,13.3002,4.60031,2470.264,2022-3-06T02:38:15Z
2022-03-06T00:39:43Z,42.805,6.029,13.3002,4.60033,2470.297,2022-3-06T02:41:18Z
2022-03-06T00:42:46Z,42.805,6.029,13.2997,4.60032,2470.273,2022-3-06T02:44:21Z
2022-03-06T00:45:49Z,42.805,6.029,13.3002,4.60029,2470.203,2022-3-06T02:47:24Z
2022-03-06T00:48:52Z,42.805,6.029,13.3000,4.60031,2470.18,2022-3-06T02:50:27Z
2022-03-06T00:51:55Z,42.805,6.029,13.3005,4.60032,2470.18,2022-3-06T02:53:30Z
2022-03-06T00:54:58Z,42.805,6.029,13.3001,4.60030,2470.203,2022-3-06T02:56:33Z
2022-03-06T00:58:01Z,42.805,6.029,13.2999,4.60036,2470.227,2022-3-06T02:59:37Z
2022-03-06T01:01:05Z,42.805,6.029,13.3003,4.60031,2470.217,2022-3-06T03:02:40Z
2022-03-06T01:04:08Z,42.805,6.029,13.3000,4.60031,2470.203,2022-3-06T03:05:43Z
2022-03-06T01:07:11Z,42.805,6.029,13.3000,4.60031,2470.203,2022-3-06T03:08:46Z
2022-03-06T01:10:14Z,42.805,6.029,13.3000,4.60030,2470.18,2022-3-06T03:11:49Z
2022-03-06T01:13:17Z,42.805,6.029,13.2999,4.60032,2470.227,2022-3-06T03:14:52Z
2022-03-06T01:16:20Z,42.805,6.029,13.2998,4.60031,2470.227,2022-3-06T03:17:55Z
2022-03-06T01:19:23Z,42.805,6.029,13.3000,4.60032,2470.203,2022-3-06T03:20:58Z
2022-03-06T01:22:26Z,42.805,6.029,13.3002,4.60031,2470.203,2022-3-06T03:24:01Z
2022-03-06T01:25:29Z,42.805,6.029,13.3002,4.60033,2470.227,2022-3-06T03:27:05Z
2022-03-06T01:28:33Z,42.805,6.029,13.2996,4.60031,2470.203,2022-3-06T03:30:08Z
2022-03-06T01:31:36Z,42.805,6.029,13.3000,4.60031,2470.203,2022-3-06T03:33:11Z
2022-03-06T01:34:39Z,42.805,6.029,13.3002,4.60029,2470.18,2022-3-06T03:36:14Z
2022-03-06T01:37:42Z,42.805,6.029,13.3000,4.60031,2470.217,2022-3-06T03:39:17Z
2022-03-06T01:40:45Z,42.805,6.029,13.3002,4.60032,2470.156,2022-3-06T03:42:20Z
2022-03-06T01:43:48Z,42.805,6.029,13.2997,4.60031,2470.217,2022-3-06T03:45:23Z
2022-03-06T01:46:51Z,42.805,6.029,13.3003,4.60031,2470.18,2022-3-06T03:48:26Z
2022-03-06T01:49:54Z,42.805,6.029,13.3002,4.60031,2470.156,2022-3-06T03:51:30Z
2022-03-06T01:52:58Z,42.805,6.029,13.2998,4.60031,2470.203,2022-3-06T03:54:33Z
2022-03-06T01:56:01Z,42.805,6.029,13.2998,4.60030,2470.203,2022-3-06T03:57:36Z
2022-03-06T01:59:04Z,42.805,6.029,13.3004,4.60029,2470.18,2022-3-06T04:00:39Z
2022-03-06T02:02:07Z,42.805,6.029,13.3002,4.60031,2470.194,2022-3-06T04:03:42Z
2022-03-06T02:05:10Z,42.805,6.029,13.2999,4.60030,2470.18,2022-3-06T04:06:45Z
2022-03-06T02:08:13Z,42.805,6.029,13.2998,4.60031,2470.18,2022-3-06T04:09:48Z
2022-03-06T02:11:16Z,42.805,6.029,13.2998,4.60029,2470.18,2022-3-06T04:12:51Z
2022-03-06T02:14:19Z,42.805,6.029,13.3000,4.60029,2470.18,2022-3-06T04:15:54Z
2022-03-06T02:17:23Z,42.805,6.029,13.3000,4.60031,2470.194,2022-3-06T04:18:58Z
2022-03-06T02:20:26Z,42.805,6.029,13.3003,4.60029,2470.18,2022-3-06T04:22:01Z
2022-03-06T02:23:29Z,42.805,6.029,13.2999,4.60031,2470.18,2022-3-06T04:25:04Z
2022-03-06T02:26:32Z,42.805,6.029,13.3004,4.60030,2470.18,2022-3-06T04:28:07Z
2022-03-06T02:29:35Z,42.805,6.029,13.2996,4.60029,2470.18,2022-3-06T04:31:10Z
2022-03-06T02:32:38Z,42.805,6.029,13.3006,4.60031,2470.156,2022-3-06T04:34:13Z
2022-03-06T02:35:41Z,42.805,6.029,13.2999,4.60029,2470.18,2022-3-06T04:37:16Z
2022-03-06T02:38:44Z,42.805,6.029,13.3001,4.60028,2470.18,2022-3-06T04:40:19Z
2022-03-06T02:41:47Z,42.805,6.029,13.2998,4.60032,2470.194,2022-3-06T04:43:23Z
2022-03-06T02:44:51Z,42.805,6.029,13.3000,4.60029,2470.217,2022-3-06T04:46:26Z
2022-03-06T02:47:54Z,42.805,6.029,13.2998,4.60029,2470.194,2022-3-06T04:49:29Z
2022-03-06T02:50:57Z,42.805,6.029,13.3003,4.60030,2470.194,2022-3-06T04:52:32Z
2022-03-06T02:54:00Z,42.805,6.029,13.3000,4.60029,2470.156,2022-3-06T04:55:35Z
2022-03-06T02:57:03Z,42.805,6.029,13.3003,4.60032,2470.18,2022-3-06T04:58:38Z
2022-03-06T03:00:06Z,42.805,6.029,13.2998,4.60030,2470.156,2022-3-06T05:01:41Z
2022-03-06T03:03:09Z,42.805,6.029,13.3002,4.60030,2470.156,2022-3-06T05:04:44Z
2022-03-06T03:06:12Z,42.805,6.029,13.3000,4.60029,2470.133,2022-3-06T05:07:48Z
2022-03-06T03:09:16Z,42.805,6.029,13.3000,4.60031,2470.156,2022-3-06T05:10:51Z
2022-03-06T03:12:19Z,42.805,6.029,13.3002,4.60030,2470.171,2022-3-06T05:13:54Z
2022-03-06T03:15:22Z,42.805,6.029,13.3000,4.60032,2470.133,2022-3-06T05:16:57Z
2022-03-06T03:18:25Z,42.805,6.029,13.2998,4.60030,2470.18,2022-3-06T05:20:00Z
2022-03-06T03:21:28Z,42.805,6.029,13.3004,4.60029,2470.171,2022-3-06T05:23:03Z
2022-03-06T03:24:31Z,42.805,6.029,13.2998,4.60031,2470.156,2022-3-06T05:26:06Z
2022-03-06T03:27:34Z,42.805,6.029,13.3000,4.60030,2470.156,2022-3-06T05:29:09Z
2022-03-06T03:30:37Z,42.805,6.029,13.3000,4.60030,2470.143,2022-3-06T05:32:12Z
2022-03-06T03:33:40Z,42.805,6.029,13.2998,4.60029,2470.166,2022-3-06T05:35:16Z
2022-03-06T03:36:44Z,42.805,6.029,13.3000,4.60030,2470.194,2022-3-06T05:38:19Z
2022-03-06T03:39:47Z,42.805,6.029,13.3003,4.60031,2470.18,2022-3-06T05:41:22Z
2022-03-06T03:42:50Z,42.805,6.029,13.3003,4.60029,2470.133,2022-3-06T05:44:25Z
2022-03-06T03:45:53Z,42.805,6.029,13.2997,4.60029,2470.133,2022-3-06T05:47:28Z
2022-03-06T03:48:56Z,42.805,6.029,13.3000,4.60029,2470.11,2022-3-06T05:50:31Z
2022-03-06T03:51:59Z,42.805,6.029,13.3001,4.60029,2470.133,2022-3-06T05:53:34Z
2022-03-06T03:55:02Z,42.805,6.029,13.3001,4.60031,2470.11,2022-3-06T05:56:37Z
2022-03-06T03:58:05Z,42.805,6.029,13.3000,4.60031,2470.133,2022-3-06T05:59:41Z
2022-03-06T04:01:08Z,42.805,6.029,13.2999,4.60029,2470.133,2022-3-06T06:02:44Z
2022-03-06T04:04:12Z,42.805,6.029,13.3003,4.60029,2470.133,2022-3-06T06:05:47Z
2022-03-06T04:07:15Z,42.805,6.029,13.3004,4.60030,2470.133,2022-3-06T06:08:50Z
2022-03-06T04:10:18Z,42.805,6.029,13.3000,4.60031,2470.133,2022-3-06T06:11:53Z
2022-03-06T04:13:21Z,42.805,6.029,13.2998,4.60031,2470.147,2022-3-06T06:14:56Z
2022-03-06T04:16:24Z,42.805,6.029,13.3000,4.60030,2470.147,2022-3-06T06:17:59Z
2022-03-06T04:19:27Z,42.805,6.029,13.3002,4.60032,2470.11,2022-3-06T06:21:02Z
2022-03-06T04:22:30Z,42.805,6.029,13.3002,4.60031,2470.133,2022-3-06T06:24:05Z
2022-03-06T04:25:33Z,42.805,6.029,13.2997,4.60029,2470.147,2022-3-06T06:27:09Z
2022-03-06T04:28:37Z,42.805,6.029,13.3004,4.60029,2470.133,2022-3-06T06:30:12Z
2022-03-06T04:31:40Z,42.805,6.029,13.3003,4.60029,2470.124,2022-3-06T06:33:15Z
2022-03-06T04:34:43Z,42.805,6.029,13.2998,4.60031,2470.156,2022-3-06T06:36:18Z
2022-03-06T04:37:46Z,42.805,6.029,13.3004,4.60030,2470.147,2022-3-06T06:39:21Z
2022-03-06T04:40:49Z,42.805,6.029,13.2999,4.60029,2470.133,2022-3-06T06:42:24Z
2022-03-06T04:43:52Z,42.805,6.029,13.3000,4.60029,2470.147,2022-3-06T06:45:27Z
2022-03-06T04:46:55Z,42.805,6.029,13.3004,4.60029,2470.11,2022-3-06T06:48:30Z
2022-03-06T04:49:58Z,42.805,6.029,13.3000,4.60030,2470.171,2022-3-06T06:51:33Z
2022-03-06T04:53:02Z,42.805,6.029,13.3000,4.60029,2470.171,2022-3-06T06:54:37Z
2022-03-06T04:56:05Z,42.805,6.029,13.2998,4.60029,2470.18,2022-3-06T06:57:40Z
2022-03-06T04:59:08Z,42.805,6.029,13.3000,4.60032,2470.11,2022-3-06T07:00:43Z
2022-03-06T05:02:11Z,42.805,6.029,13.3003,4.60029,2470.156,2022-3-06T07:03:46Z
2022-03-06T05:05:14Z,42.805,6.029,13.3000,4.60031,2470.147,2022-3-06T07:06:49Z
2022-03-06T05:08:17Z,42.805,6.029,13.3000,4.60029,2470.147,2022-3-06T07:09:52Z
2022-03-06T05:11:20Z,42.805,6.029,13.2997,4.60029,2470.171,2022-3-06T07:12:55Z
2022-03-06T05:14:23Z,42.805,6.029,13.3004,4.60030,2470.156,2022-3-06T07:15:58Z
2022-03-06T05:17:26Z,42.805,6.029,13.2998,4.60029,2470.203,2022-3-06T07:19:02Z
2022-03-06T05:20:30Z,42.805,6.029,13.2999,4.60031,2470.18,2022-3-06T07:22:05Z
2022-03-06T05:23:33Z,42.805,6.029,13.3000,4.60030,2470.156,2022-3-06T07:25:08Z
2022-03-06T05:26:36Z,42.805,6.029,13.3003,4.60029,2470.18,2022-3-06T07:28:11Z
2022-03-06T05:29:39Z,42.805,6.029,13.2998,4.60029,2470.171,2022-3-06T07:31:14Z
2022-03-06T05:32:42Z,42.805,6.029,13.2999,4.60030,2470.171,2022-3-06T07:34:17Z
2022-03-06T05:35:45Z,42.805,6.029,13.2997,4.60029,2470.156,2022-3-06T07:37:20Z
2022-03-06T05:38:48Z,42.805,6.029,13.3000,4.60029,2470.156,2022-3-06T07:40:23Z
2022-03-06T05:41:51Z,42.805,6.029,13.3002,4.60029,2470.217,2022-3-06T07:43:27Z
2022-03-06T05:44:55Z,42.805,6.029,13.2999,4.60030,2470.156,2022-3-06T07:46:30Z
2022-03-06T05:47:58Z,42.805,6.029,13.2998,4.60031,2470.217,2022-3-06T07:49:33Z
2022-03-06T05:51:01Z,42.805,6.029,13.3000,4.60029,2470.18,2022-3-06T07:52:36Z
2022-03-06T05:54:04Z,42.805,6.029,13.3002,4.60031,2470.203,2022-3-06T07:55:39Z
2022-03-06T05:57:07Z,42.805,6.029,13.3003,4.60031,2470.18,2022-3-06T07:58:42Z
2022-03-06T06:00:10Z,42.805,6.029,13.3000,4.60029,2470.18,2022-3-06T08:01:45Z
2022-03-06T06:03:13Z,42.805,6.029,13.3001,4.60031,2470.156,2022-3-06T08:04:48Z
2022-03-06T06:06:16Z,42.805,6.029,13.3002,4.60031,2470.227,2022-3-06T08:07:51Z
2022-03-06T06:09:19Z,42.805,6.029,13.3003,4.60031,2470.217,2022-3-06T08:10:55Z
2022-03-06T06:12:23Z,42.805,6.029,13.2999,4.60029,2470.227,2022-3-06T08:13:58Z
2022-03-06T06:15:26Z,42.805,6.029,13.3000,4.60030,2470.24,2022-3-06T08:17:01Z
2022-03-06T06:18:29Z,42.805,6.029,13.3004,4.60031,2470.227,2022-3-06T08:20:04Z
2022-03-06T06:21:32Z,42.805,6.029,13.2999,4.60031,2470.203,2022-3-06T08:23:07Z
2022-03-06T06:24:35Z,42.805,6.029,13.3002,4.60029,2470.217,2022-3-06T08:26:10Z
2022-03-06T06:27:38Z,42.805,6.029,13.3002,4.60031,2470.264,2022-3-06T08:29:13Z
2022-03-06T06:30:41Z,42.805,6.029,13.3006,4.60031,2470.227,2022-3-06T08:32:16Z
2022-03-06T06:33:44Z,42.805,6.029,13.2999,4.60031,2470.264,2022-3-06T08:35:20Z
2022-03-06T06:36:48Z,42.805,6.029,13.3001,4.60031,2470.227,2022-3-06T08:38:23Z
2022-03-06T06:39:51Z,42.805,6.029,13.3004,4.60031,2470.31,2022-3-06T08:41:26Z
2022-03-06T06:42:54Z,42.805,6.029,13.3001,4.60032,2470.287,2022-3-06T08:44:29Z
2022-03-06T06:45:57Z,42.805,6.029,13.3002,4.60033,2470.273,2022-3-06T08:47:32Z
2022-03-06T06:49:00Z,42.805,6.029,13.3000,4.60033,2470.31,2022-3-06T08:50:35Z
2022-03-06T06:52:03Z,42.805,6.029,13.3004,4.60033,2470.25,2022-3-06T08:53:38Z
2022-03-06T06:55:06Z,42.805,6.029,13.3005,4.60034,2470.25,2022-3-06T08:56:41Z
2022-03-06T06:58:09Z,42.805,6.029,13.3007,4.60033,2470.25,2022-3-06T08:59:44Z
2022-03-06T07:01:12Z,42.805,6.029,13.3000,4.60033,2470.287,2022-3-06T09:02:48Z
2022-03-06T07:04:16Z,42.805,6.029,13.3003,4.60034,2470.297,2022-3-06T09:05:51Z
2022-03-06T07:07:19Z,42.805,6.029,13.3005,4.60033,2470.297,2022-3-06T09:08:54Z
2022-03-06T07:10:22Z,42.805,6.029,13.3006,4.60034,2470.297,2022-3-06T09:11:57Z
2022-03-06T07:13:25Z,42.805,6.029,13.3004,4.60036,2470.31,2022-3-06T09:15:00Z
2022-03-06T07:16:28Z,42.805,6.029,13.3006,4.60034,2470.334,2022-3-06T09:18:03Z
2022-03-06T07:19:31Z,42.805,6.029,13.3004,4.60036,2470.32,2022-3-06T09:21:06Z
2022-03-06T07:22:34Z,42.805,6.029,13.3008,4.60036,2470.32,2022-3-06T09:24:09Z
2022-03-06T07:25:37Z,42.805,6.029,13.3006,4.60037,2470.32,2022-3-06T09:27:13Z
2022-03-06T07:28:41Z,42.805,6.029,13.3006,4.60037,2470.32,2022-3-06T09:30:16Z
2022-03-06T07:31:44Z,42.805,6.029,13.3004,4.60039,2470.32,2022-3-06T09:33:19Z
2022-03-06T07:34:47Z,42.805,6.029,13.3009,4.60037,2470.334,2022-3-06T09:36:22Z
2022-03-06T07:37:50Z,42.805,6.029,13.3011,4.60037,2470.343,2022-3-06T09:39:25Z
2022-03-06T07:40:53Z,42.805,6.029,13.3007,4.60038,2470.343,2022-3-06T09:42:28Z
2022-03-06T07:43:56Z,42.805,6.029,13.3009,4.60038,2470.343,2022-3-06T09:45:31Z
2022-03-06T07:46:59Z,42.805,6.029,13.3006,4.60038,2470.32,2022-3-06T09:48:34Z
2022-03-06T07:50:02Z,42.805,6.029,13.3009,4.60038,2470.38,2022-3-06T09:51:37Z
2022-03-06T07:53:05Z,42.805,6.029,13.3008,4.60039,2470.38,2022-3-06T09:54:41Z
2022-03-06T07:56:09Z,42.805,6.029,13.3011,4.60039,2470.366,2022-3-06T09:57:44Z
2022-03-06T07:59:12Z,42.805,6.029,13.3005,4.60038,2470.38,2022-3-06T10:00:47Z
2022-03-06T08:02:15Z,42.805,6.029,13.3012,4.60038,2470.366,2022-3-06T10:03:50Z
2022-03-06T08:05:18Z,42.805,6.029,13.3008,4.60038,2470.366,2022-3-06T10:06:53Z
2022-03-06T08:08:21Z,42.805,6.029,13.3009,4.60041,2470.38,2022-3-06T10:09:56Z
2022-03-06T08:11:24Z,42.805,6.029,13.3010,4.60039,2470.404,2022-3-06T10:12:59Z
2022-03-06T08:14:27Z,42.805,6.029,13.3010,4.60040,2470.366,2022-3-06T10:16:02Z
2022-03-06T08:17:30Z,42.805,6.029,13.3007,4.60038,2470.404,2022-3-06T10:19:06Z
2022-03-06T08:20:34Z,42.805,6.029,13.3010,4.60039,2470.39,2022-3-06T10:22:09Z
2022-03-06T08:23:37Z,42.805,6.029,13.3004,4.60039,2470.404,2022-3-06T10:25:12Z
2022-03-06T08:26:40Z,42.805,6.029,13.3008,4.60039,2470.39,2022-3-06T10:28:15Z
2022-03-06T08:29:43Z,42.805,6.029,13.3011,4.60039,2470.404,2022-3-06T10:31:18Z
2022-03-06T08:32:46Z,42.805,6.029,13.3006,4.60038,2470.427,2022-3-06T10:34:21Z
2022-03-06T08:35:49Z,42.805,6.029,13.3011,4.60039,2470.413,2022-3-06T10:37:24Z
2022-03-06T08:38:52Z,42.805,6.029,13.3009,4.60039,2470.39,2022-3-06T10:40:27Z
2022-03-06T08:41:55Z,42.805,6.029,13.3006,4.60039,2470.366,2022-3-06T10:43:31Z
2022-03-06T08:44:59Z,42.805,6.029,13.3009,4.60038,2470.437,2022-3-06T10:46:34Z
2022-03-06T08:48:02Z,42.805,6.029,13.3010,4.60038,2470.413,2022-3-06T10:49:37Z
2022-03-06T08:51:05Z,42.805,6.029,13.3007,4.60042,2470.427,2022-3-06T10:52:40Z
2022-03-06T08:54:08Z,42.805,6.029,13.3005,4.60040,2470.427,2022-3-06T10:55:43Z
2022-03-06T08:57:11Z,42.805,6.029,13.3006,4.60038,2470.413,2022-3-06T10:58:46Z
2022-03-06T09:00:14Z,42.805,6.029,13.3006,4.60039,2470.437,2022-3-06T11:01:49Z
2022-03-06T09:03:17Z,42.805,6.029,13.3005,4.60038,2470.437,2022-3-06T11:04:52Z
2022-03-06T09:06:20Z,42.805,6.029,13.3008,4.60037,2470.45,2022-3-06T11:07:56Z
2022-03-06T09:09:24Z,42.805,6.029,13.3005,4.60037,2470.437,2022-3-06T11:10:59Z
2022-03-06T09:12:27Z,42.805,6.029,13.3011,4.60039,2470.437,2022-3-06T11:14:02Z
2022-03-06T09:15:30Z,42.805,6.029,13.3011,4.60037,2470.46,2022-3-06T11:17:05Z
2022-03-06T09:18:33Z,42.805,6.029,13.3004,4.60039,2470.437,2022-3-06T11:20:08Z
2022-03-06T09:21:36Z,42.805,6.029,13.3007,4.60039,2470.39,2022-3-06T11:23:11Z
2022-03-06T09:24:39Z,42.805,6.029,13.3006,4.60039,2470.437,2022-3-06T11:26:14Z
2022-03-06T09:27:42Z,42.805,6.029,13.3007,4.60037,2470.413,2022-3-06T11:29:17Z
2022-03-06T09:30:45Z,42.805,6.029,13.3008,4.60038,2470.427,2022-3-06T11:32:21Z
2022-03-06T09:33:49Z,42.805,6.029,13.3009,4.60039,2470.413,2022-3-06T11:35:24Z
2022-03-06T09:36:52Z,42.805,6.029,13.3006,4.60039,2470.45,2022-3-06T11:38:27Z
2022-03-06T09:39:55Z,42.805,6.029,13.3006,4.60038,2470.413,2022-3-06T11:41:30Z
2022-03-06T09:42:58Z,42.805,6.029,13.3006,4.60037,2470.413,2022-3-06T11:44:33Z
2022-03-06T09:46:01Z,42.805,6.029,13.3008,4.60039,2470.437,2022-3-06T11:47:36Z
2022-03-06T09:49:04Z,42.805,6.029,13.3011,4.60038,2470.474,2022-3-06T11:50:39Z
2022-03-06T09:52:07Z,42.805,6.029,13.3005,4.60036,2470.437,2022-3-06T11:53:42Z
2022-03-06T09:55:10Z,42.805,6.029,13.3009,4.60038,2470.45,2022-3-06T11:56:45Z
2022-03-06T09:58:13Z,42.805,6.029,13.3006,4.60036,2470.437,2022-3-06T11:59:49Z
2022-03-06T10:01:17Z,42.805,6.029,13.3008,4.60035,2470.437,2022-3-06T12:02:52Z
2022-03-06T10:04:20Z,42.805,6.029,13.3007,4.60034,2470.474,2022-3-06T12:05:55Z
2022-03-06T10:07:23Z,42.805,6.029,13.3007,4.60034,2470.45,2022-3-06T12:08:58Z
2022-03-06T10:10:26Z,42.805,6.029,13.3004,4.60035,2470.423,2022-3-06T12:12:01Z
2022-03-06T10:13:29Z,42.805,6.029,13.3004,4.60033,2470.427,2022-3-06T12:15:04Z
2022-03-06T10:16:32Z,42.805,6.029,13.3005,4.60033,2470.46,2022-3-06T12:18:07Z
2022-03-06T10:19:35Z,42.805,6.029,13.3001,4.60033,2470.427,2022-3-06T12:21:10Z
2022-03-06T10:22:38Z,42.805,6.029,13.2999,4.60034,2470.413,2022-3-06T12:24:14Z
2022-03-06T10:25:42Z,42.805,6.029,13.3006,4.60032,2470.437,2022-3-06T12:27:17Z
2022-03-06T10:28:45Z,42.805,6.029,13.3003,4.60032,2470.483,2022-3-06T12:30:20Z
2022-03-06T10:31:48Z,42.805,6.029,13.3007,4.60033,2470.427,2022-3-06T12:33:23Z
2022-03-06T10:34:51Z,42.805,6.029,13.3002,4.60032,2470.413,2022-3-06T12:36:26Z
2022-03-06T10:37:54Z,42.805,6.029,13.2999,4.60033,2470.45,2022-3-06T12:39:29Z
2022-03-06T10:40:57Z,42.805,6.029,13.3000,4.60035,2470.46,2022-3-06T12:42:32Z
2022-03-06T10:44:00Z,42.805,6.029,13.3004,4.60031,2470.46,2022-3-06T12:45:35Z
2022-03-06T10:47:03Z,42.805,6.029,13.3000,4.60031,2470.46,2022-3-06T12:48:39Z
2022-03-06T10:50:07Z,42.805,6.029,13.3001,4.60031,2470.437,2022-3-06T12:51:42Z
2022-03-06T10:53:10Z,42.805,6.029,13.3001,4.60033,2470.437,2022-3-06T12:54:45Z
2022-03-06T10:56:13Z,42.805,6.029,13.3000,4.60031,2470.437,2022-3-06T12:57:48Z
2022-03-06T10:59:16Z,42.805,6.029,13.3001,4.60032,2470.39,2022-3-06T13:00:51Z
2022-03-06T11:02:19Z,42.805,6.029,13.3000,4.60036,2470.413,2022-3-06T13:03:54Z
2022-03-06T11:05:22Z,42.805,6.029,13.3001,4.60031,2470.413,2022-3-06T13:06:57Z
2022-03-06T11:08:25Z,42.805,6.029,13.3004,4.60031,2470.404,2022-3-06T13:10:00Z
2022-03-06T11:11:28Z,42.805,6.029,13.3001,4.60031,2470.437,2022-3-06T13:13:04Z
2022-03-06T11:14:32Z,42.805,6.029,13.3005,4.60030,2470.404,2022-3-06T13:16:07Z
2022-03-06T11:17:35Z,42.805,6.029,13.3000,4.60034,2470.45,2022-3-06T13:19:10Z
2022-03-06T11:20:38Z,42.805,6.029,13.2998,4.60029,2470.413,2022-3-06T13:22:13Z
2022-03-06T11:23:41Z,42.805,6.029,13.3000,4.60030,2470.413,2022-3-06T13:25:16Z
2022-03-06T11:26:44Z,42.805,6.029,13.3002,4.60029,2470.45,2022-3-06T13:28:19Z
2022-03-06T11:29:47Z,42.805,6.029,13.3000,4.60031,2470.437,2022-3-06T13:31:22Z
2022-03-06T11:32:50Z,42.805,6.029,13.3001,4.60029,2470.427,2022-3-06T13:34:25Z
2022-03-06T11:35:53Z,42.805,6.029,13.2998,4.60030,2470.427,2022-3-06T13:37:29Z
2022-03-06T11:38:57Z,42.805,6.029,13.2998,4.60029,2470.413,2022-3-06T13:40:32Z
2022-03-06T11:42:00Z,42.805,6.029,13.2999,4.60029,2470.427,2022-3-06T13:43:35Z
2022-03-06T11:45:03Z,42.805,6.029,13.2998,4.60029,2470.39,2022-3-06T13:46:38Z
2022-03-06T11:48:06Z,42.805,6.029,13.3000,4.60029,2470.39,2022-3-06T13:49:41Z
2022-03-06T11:51:09Z,42.805,6.029,13.3000,4.60029,2470.39,2022-3-06T13:52:44Z
2022-03-06T11:54:12Z,42.805,6.029,13.3001,4.60029,2470.427,2022-3-06T13:55:47Z
2022-03-06T11:57:15Z,42.805,6.029,13.3000,4.60029,2470.404,2022-3-06T13:58:50Z
2022-03-06T12:00:18Z,42.805,6.029,13.2998,4.60031,2470.39,2022-3-06T14:01:54Z
2022-03-06T12:03:22Z,42.805,6.029,13.3000,4.60031,2470.413,2022-3-06T14:04:57Z
2022-03-06T12:06:25Z,42.805,6.029,13.2999,4.60031,2470.39,2022-3-06T14:08:00Z
2022-03-06T12:09:28Z,42.805,6.029,13.2999,4.60029,2470.413,2022-3-06T14:11:03Z
2022-03-06T12:12:31Z,42.805,6.029,13.3000,4.60031,2470.366,2022-3-06T14:14:06Z
2022-03-06T12:15:34Z,42.805,6.029,13.3002,4.60029,2470.366,2022-3-06T14:17:09Z
2022-03-06T12:18:37Z,42.805,6.029,13.3000,4.60029,2470.39,2022-3-06T14:20:12Z
2022-03-06T12:21:40Z,42.805,6.029,13.2998,4.60031,2470.404,2022-3-06T14:23:15Z
2022-03-06T12:24:43Z,42.805,6.029,13.2999,4.60029,2470.427,2022-3-06T14:26:19Z
2022-03-06T12:27:47Z,42.805,6.029,13.2998,4.60030,2470.404,2022-3-06T14:29:22Z
2022-03-06T12:30:50Z,42.805,6.029,13.3000,4.60031,2470.404,2022-3-06T14:32:25Z
2022-03-06T12:33:53Z,42.805,6.029,13.2998,4.60032,2470.38,2022-3-06T14:35:28Z
2022-03-06T12:36:56Z,42.805,6.029,13.2998,4.60029,2470.38,2022-3-06T14:38:31Z
2022-03-06T12:39:59Z,42.805,6.029,13.3000,4.60032,2470.366,2022-3-06T14:41:34Z
2022-03-06T12:43:02Z,42.805,6.029,13.3002,4.60029,2470.39,2022-3-06T14:44:37Z
2022-03-06T12:46:05Z,42.805,6.029,13.2997,4.60029,2470.38,2022-3-06T14:47:40Z
2022-03-06T12:49:08Z,42.805,6.029,13.2999,4.60029,2470.366,2022-3-06T14:50:43Z
2022-03-06T12:52:11Z,42.805,6.029,13.2996,4.60029,2470.334,2022-3-06T14:53:47Z
2022-03-06T12:55:15Z,42.805,6.029,13.2998,4.60029,2470.39,2022-3-06T14:56:50Z
2022-03-06T12:58:18Z,42.805,6.029,13.3000,4.60028,2470.404,2022-3-06T14:59:53Z
2022-03-06T13:01:21Z,42.805,6.029,13.2995,4.60029,2470.366,2022-3-06T15:02:56Z
2022-03-06T13:04:24Z,42.805,6.029,13.3001,4.60029,2470.343,2022-3-06T15:05:59Z
2022-03-06T13:07:27Z,42.805,6.029,13.3000,4.60029,2470.32,2022-3-06T15:09:02Z
2022-03-06T13:10:30Z,42.805,6.029,13.3000,4.60033,2470.357,2022-3-06T15:12:05Z
2022-03-06T13:13:33Z,42.805,6.029,13.2999,4.60031,2470.32,2022-3-06T15:15:08Z
2022-03-06T13:16:36Z,42.805,6.029,13.2999,4.60031,2470.366,2022-3-06T15:18:12Z
2022-03-06T13:19:40Z,42.805,6.029,13.3003,4.60029,2470.366,2022-3-06T15:21:15Z
2022-03-06T13:22:43Z,42.805,6.029,13.3001,4.60029,2470.343,2022-3-06T15:24:18Z
2022-03-06T13:25:46Z,42.805,6.029,13.2996,4.60029,2470.38,2022-3-06T15:27:21Z
2022-03-06T13:28:49Z,42.805,6.029,13.2998,4.60030,2470.343,2022-3-06T15:30:24Z
2022-03-06T13:31:52Z,42.805,6.029,13.2999,4.60028,2470.357,2022-3-06T15:33:27Z
2022-03-06T13:34:55Z,42.805,6.029,13.2996,4.60029,2470.343,2022-3-06T15:36:30Z
2022-03-06T13:37:58Z,42.805,6.029,13.3000,4.60028,2470.38,2022-3-06T15:39:33Z
2022-03-06T13:41:01Z,42.805,6.029,13.2996,4.60028,2470.297,2022-3-06T15:42:37Z
2022-03-06T13:44:05Z,42.805,6.029,13.3000,4.60029,2470.334,2022-3-06T15:45:40Z
2022-03-06T13:47:08Z,42.805,6.029,13.2997,4.60028,2470.343,2022-3-06T15:48:43Z
2022-03-06T13:50:11Z,42.805,6.029,13.2997,4.60029,2470.343,2022-3-06T15:51:46Z
2022-03-06T13:53:14Z,42.805,6.029,13.2997,4.60030,2470.32,2022-3-06T15:54:49Z
2022-03-06T13:56:17Z,42.805,6.029,13.2998,4.60029,2470.38,2022-3-06T15:57:52Z
2022-03-06T13:59:20Z,42.805,6.029,13.2998,4.60028,2470.357,2022-3-06T16:00:55Z
2022-03-06T14:02:23Z,42.805,6.029,13.2999,4.60029,2470.32,2022-3-06T16:03:58Z
2022-03-06T14:05:26Z,42.805,6.029,13.2996,4.60031,2470.343,2022-3-06T16:07:02Z
2022-03-06T14:08:30Z,42.805,6.029,13.3004,4.60029,2470.343,2022-3-06T16:10:05Z
2022-03-06T14:11:33Z,42.805,6.029,13.3003,4.60029,2470.334,2022-3-06T16:13:08Z
2022-03-06T14:14:36Z,42.805,6.029,13.2998,4.60029,2470.32,2022-3-06T16:16:11Z
2022-03-06T14:17:39Z,42.805,6.029,13.2998,4.60030,2470.32,2022-3-06T16:19:14Z
2022-03-06T14:20:42Z,42.805,6.029,13.3000,4.60028,2470.32,2022-3-06T16:22:17Z
2022-03-06T14:23:45Z,42.805,6.029,13.2999,4.60029,2470.32,2022-3-06T16:25:20Z
2022-03-06T14:26:48Z,42.805,6.029,13.2999,4.60029,2470.334,2022-3-06T16:28:23Z
2022-03-06T14:29:51Z,42.805,6.029,13.2998,4.60029,2470.343,2022-3-06T16:31:27Z
2022-03-06T14:32:55Z,42.805,6.029,13.2999,4.60029,2470.31,2022-3-06T16:34:30Z
2022-03-06T14:35:58Z,42.805,6.029,13.3000,4.60030,2470.273,2022-3-06T16:37:33Z
2022-03-06T14:39:01Z,42.805,6.029,13.2998,4.60029,2470.297,2022-3-06T16:40:36Z
2022-03-06T14:42:04Z,42.805,6.029,13.3000,4.60028,2470.31,2022-3-06T16:43:39Z
2022-03-06T14:45:07Z,42.805,6.029,13.2997,4.60029,2470.287,2022-3-06T16:46:42Z
2022-03-06T14:48:10Z,42.805,6.029,13.2998,4.60029,2470.32,2022-3-06T16:49:45Z
2022-03-06T14:51:13Z,42.805,6.029,13.3000,4.60031,2470.334,2022-3-06T16:52:48Z
2022-03-06T14:54:16Z,42.805,6.029,13.3001,4.60029,2470.32,2022-3-06T16:55:52Z
2022-03-06T14:57:20Z,42.805,6.029,13.2996,4.60029,2470.32,2022-3-06T16:58:55Z
2022-03-06T15:00:23Z,42.805,6.029,13.2998,4.60028,2470.334,2022-3-06T17:01:58Z
2022-03-06T15:03:26Z,42.805,6.029,13.2998,4.60031,2470.26,2022-3-06T17:05:01Z
2022-03-06T15:06:29Z,42.805,6.029,13.3001,4.60035,2470.287,2022-3-06T17:08:04Z
2022-03-06T15:09:32Z,42.805,6.029,13.3003,4.60029,2470.297,2022-3-06T17:11:07Z
2022-03-06T15:12:35Z,42.805,6.029,13.3002,4.60030,2470.31,2022-3-06T17:14:10Z